Simultaneous Nadir Overpasses (SNOs) Predictions

Prediction of SNOs between AQUA and NPP Satellite Orbit:

Table of predicted SNOs for the next 14.0 days since TLE Epoch: 7/16/2022
Index Date (AQUA) Time (AQUA) Lat,Lon (AQUA) SZA (AQUA ) Date (NPP) Time (NPP) Lat,Lon (NPP) SZA (NPP ) Distance(km) Time Diff (sec)
1 07/17/2022 01:26:41 -70.90,-152.26 97.82 07/17/2022 01:25:27 -71.12,-153.47 97.65 50.77 74
2 07/17/2022 02:13:38 78.26, 35.31 73.73 07/17/2022 02:13:39 78.25, 35.19 73.75 2.82 1
3 07/17/2022 02:59:37 -80.85, -83.61 118.10 07/17/2022 03:00:50 -80.16, -85.62 118.40 85.08 73
4 07/19/2022 17:40:04 -78.37, -15.70 105.97 07/19/2022 17:39:49 -78.38, -15.62 105.98 2.04 15
5 07/19/2022 18:29:19 78.81, 154.28 73.45 07/19/2022 18:30:22 78.81, 154.32 73.39 0.93 63
6 07/22/2022 09:06:37 78.11, -68.60 74.89 07/22/2022 09:06:08 78.10, -68.71 74.94 2.73 29
7 07/22/2022 09:55:49 -78.74, 102.28 105.96 07/22/2022 09:56:37 -78.75, 102.36 106.01 1.71 48
8 07/25/2022 00:33:04 -78.15,-119.99 104.64 07/25/2022 00:32:20 -78.15,-119.98 104.60 0.25 44
9 07/25/2022 01:22:18 78.63, 50.08 74.74 07/25/2022 01:22:52 78.63, 50.06 74.71 0.54 34
10 07/27/2022 15:59:32 78.06,-172.06 76.07 07/27/2022 15:58:34 78.06,-172.04 76.11 0.62 58



Historial Predications of SNOs between AQUA and NPP
